Location: Chochol
(49.7771°N, 14.9780°E)
Time: 17:53:17
(UTC+00:00)

ERS-1 Rocket - Visible Passes

Search period start: 08 August 2020 00:00
Search period end: 18 August 2020 00:00
Orbit: 752 x 758 km, 98.5° (Epoch: 07 August)

Date Brightness Start Highest point End Pass type
(mag) Time Alt. Az. Time Alt. Az. Time Alt. Az.
08 Aug 3.3 19:56:08 17° SE 19:59:48 51° ENE 20:04:40 10° N visible
08 Aug 4.7 21:36:09 16° SW 21:38:51 25° W 21:43:00 10° NW visible
09 Aug 4.3 19:16:24 10° ESE 19:20:29 26° ENE 19:24:35 10° N visible
09 Aug 3.5 20:56:09 24° SSW 20:58:59 53° W 21:03:55 10° NNW visible
10 Aug 3.0 20:16:10 23° SSE 20:19:21 74° ENE 20:24:23 10° NNW visible
10 Aug 5.1 21:56:09 13° WSW 21:58:41 17° W 22:02:00 10° NW visible
11 Aug 3.8 19:36:10 14° SE 19:39:55 36° ENE 19:44:29 10° N visible
11 Aug 4.1 21:16:11 22° SSW 21:18:42 36° W 21:23:21 10° NNW visible
12 Aug 4.7 18:57:18 10° E 19:00:43 19° ENE 19:04:09 10° NNE visible
12 Aug 3.0 20:36:12 27° S 20:38:57 78° WSW 20:44:00 10° NNW visible
12 Aug 5.4 22:16:51 10° WSW 22:18:35 12° W 22:20:20 10° WNW visible
13 Aug 3.3 19:56:13 20° SE 19:59:25 50° ENE 20:04:17 10° N visible
13 Aug 4.6 21:36:12 19° SW 21:38:29 25° W 21:42:38 10° NW visible
14 Aug 4.3 19:16:13 11° ESE 19:20:06 26° ENE 19:24:12 10° N visible
14 Aug 3.5 20:56:13 29° SSW 20:58:36 53° W 21:03:32 10° NNW visible
15 Aug 2.9 20:16:14 27° SSE 20:18:58 73° ENE 20:23:59 10° N visible
15 Aug 5.1 21:56:15 14° WSW 21:58:18 18° W 22:01:39 10° NW visible
16 Aug 3.8 19:36:16 17° ESE 19:39:33 35° ENE 19:44:06 10° N visible
16 Aug 4.1 21:16:15 26° SW 21:18:19 37° W 21:22:59 10° NNW visible
17 Aug 4.7 18:56:57 10° E 19:00:21 19° ENE 19:03:45 10° NNE visible
17 Aug 3.0 20:36:16 33° S 20:38:34 79° WSW 20:43:37 10° NNW visible
17 Aug 5.4 22:16:25 10° WSW 22:18:12 12° W 22:20:00 10° WNW visible
